| time (UTC) | temp C | wind direction | speed KPH | gust KPH | rain 1hr cm | rain 24hr cm | rain mn cm | humidity % | barometer mb |
| 20260906140035 | 21 | 151 | 1.6 | 3.2 | 0.00 | 0.00 | 0.00 | 83 | 1020.9 |
| 20260906130056 | 18 | 151 | 1.6 | 3.2 | 0.00 | 0.00 | 0.00 | 94 | 1020.7 |
| 20260906120046 | 17 | 333 | 0.0 | 3.2 | 0.00 | 0.00 | 0.00 | 97 | 1019.9 |
| 20260906110052 | 17 | 333 | 0.0 | 0.0 | 0.00 | 0.00 | 0.00 | 96 | 1019.1 |
| 20260906100044 | 17 | 333 | 0.0 | 0.0 | 0.00 | 0.00 | 0.00 | 96 | 1019.2 |
| 20260906090042 | 17 | 294 | 0.0 | 0.0 | 0.00 | 0.00 | 0.00 | 94 | 1018.9 |
| 20260906080054 | 17 | 237 | 0.0 | 0.0 | 0.00 | 0.00 | 0.00 | 96 | 1018.8 |
| 20260906070039 | 17 | 237 | 0.0 | 0.0 | 0.00 | 0.00 | 0.00 | 96 | 1018.5 |
| 20260906060034 | 17 | 237 | 0.0 | 0.0 | 0.00 | 0.00 | 0.00 | 95 | 1018.6 |
| 20260906050039 | 17 | 333 | 0.0 | 0.0 | 0.00 | 0.00 | 0.00 | 95 | 1018.4 |
| 20260906040109 | 17 | 333 | 0.0 | 0.0 | 0.00 | 0.00 | 0.00 | 93 | 1018.0 |
| 20260906030037 | 18 | 333 | 0.0 | 0.0 | 0.00 | 0.00 | 0.00 | 91 | 1018.1 |
| 20260906020037 | 20 | 333 | 0.0 | 0.0 | 0.00 | 0.00 | 0.00 | 90 | 1017.6 |
| 20260906010055 | 21 | 333 | 0.0 | 0.0 | 0.00 | 0.00 | 0.00 | 90 | 1017.5 |
| 20260906000045 | 21 | 333 | 0.0 | 3.2 | 0.00 | 0.00 | 0.00 | 87 | 1017.6 |
| 20260905230057 | 21 | 333 | 0.0 | 3.2 | 0.00 | 0.00 | 0.00 | 89 | 1017.5 |
| 20260905220046 | 22 | 151 | 1.6 | 3.2 | 0.00 | 0.00 | 0.00 | 89 | 1016.9 |
| 20260905210038 | 22 | 333 | 1.6 | 3.2 | 0.00 | 0.00 | 0.00 | 89 | 1017.0 |
| 20260905200044 | 22 | 333 | 1.6 | 3.2 | 0.00 | 0.00 | 0.00 | 92 | 1016.8 |
| 20260905190045 | 22 | 333 | 1.6 | 3.2 | 0.00 | 0.00 | 0.00 | 90 | 1017.0 |
| 20260905180047 | 23 | 333 | 1.6 | 3.2 | 0.00 | 0.00 | 0.00 | 89 | 1016.9 |
| 20260905170104 | 24 | 151 | 1.6 | 3.2 | 0.00 | 0.00 | 0.00 | 86 | 1016.8 |
| 20260905160043 | 23 | 333 | 1.6 | 3.2 | 0.00 | 0.00 | 0.00 | 88 | 1016.9 |
| 20260905150059 | 22 | 333 | 1.6 | 3.2 | 0.00 | 0.00 | 0.00 | 90 | 1016.4 |